Flag for Austria Weather past 2 weeks in Rust, Burgenland, Austria

Now
56 °F

Passing clouds.


Feels Like: 56 °F
Forecast: 56 / 73 °F
Wind: 1 mph from East

Location: Eisenstadt

Current Time: Sep 19, 2014 at 12:28:46 AM

Latest Report: Sep 18, 2014 at 11:00 PM


Visibility: 13 mi

Pressure: 30.06 "Hg

Humidity: 90%

Dew point: 53 °F

Location of RustLocation

Historic Weather in Rust — Graph

°F

Rust temperature yesterday

Maximum temperature yesterday: 71 °F (at 3:00 PM)
Minimum temperature yesterday: 51 °F (at 7:00 AM)
Average temperature yesterday: 60 °F

Past Weeks' High & Low Weather Summary

 TemperatureHumidityPressure
High78 °F (Sep 9, 2:00 PM)99% (Sep 9, 9:00 AM)30.09 "Hg (Sep 9, 9:00 AM)
Low51 °F (Sep 18, 7:00 AM)53% (Sep 17, 3:00 PM)29.77 "Hg (Sep 12, 5:00 AM)
Average63 °F84%29.98 "Hg
* Reported Sep 3 10:00 PM — Sep 18 10:00 PM, Rust, Weather by CustomWeather, © 2014

Note: Actual official high and low records may vary slightly from our data, if they occured in-between our weather recording intervals... More about our weather records

Advertising

Rust weather history for previous 24 hours

 ConditionsComfort  
Time TempWeatherWind HumidityBarometerVisibility
10:00 PM
Sep 18
57 °FCool.1 mph89%30.06 "HgN/A
9:00 PM58 °FCool.1 mph85%30.05 "HgN/A
8:00 PM62 °FPassing clouds.3 mph77%30.04 "Hg12 mi
5:00 PM69 °FPassing clouds.7 mph58%30.01 "Hg11 mi
4:00 PM70 °FMild.7 mph54%30.02 "HgN/A
3:00 PM71 °FMild.8 mph53%30.03 "HgN/A
2:00 PM69 °FPartly sunny.8 mph56%30.05 "Hg9 mi
1:00 PM68 °FMild.8 mph57%30.06 "HgN/A
12:00 PM68 °FMild.8 mph58%30.06 "HgN/A
11:00 AM67 °FSunny.9 mph59%30.07 "Hg9 mi
10:00 AM64 °FMild.6 mph67%30.07 "HgN/A
9:00 AM59 °FCool.2 mph80%30.07 "HgN/A
8:00 AM56 °FSunny.1 mph82%30.06 "Hg9 mi
7:00 AM51 °FSunny.2 mph94%30.07 "Hg9 mi
6:00 AM51 °FClear.1 mph92%30.06 "Hg6 mi
5:00 AM51 °FClear.1 mph94%30.06 "Hg6 mi
4:00 AM53 °FClear.1 mph91%30.06 "Hg6 mi
3:00 AM53 °FCool.No wind92%30.06 "HgN/A
2:00 AM54 °FCool.1 mph93%30.06 "HgN/A
1:00 AM54 °FCool.1 mph95%30.06 "HgN/A
12:00 AM55 °FCool.1 mph94%30.06 "HgN/A
Weather by CustomWeather, © 2014

See weather overviewHow to use our weather pages